"read_dt","SO2 (ppb)","flags","PMT voltage (V)","lamp voltage (V)","lamp intensity (Hz)","internal temp (C)","react chamber temp (C)","sample flow (l/min)","pres (mmHg)","SO2 bkg (ppb)","SO2 coefficient"
2015-04-15 00:00:00,1781E-3,5C000000,-0724,0835,12068,029.6,045.5,0.475,741.3,01.18,0.508
2015-04-15 00:01:00,1853E-3,5C000000,-0724,0836,11974,029.7,045.5,0.474,741.3,01.18,0.508
2015-04-15 00:02:00,1757E-3,5C000000,-0724,0835,12120,029.7,045.5,0.474,741.3,01.18,0.508
2015-04-15 00:03:00,1723E-3,5C000000,-0724,0836,12076,029.8,045.5,0.474,741.4,01.18,0.508
2015-04-15 00:04:00,1763E-3,5C000000,-0724,0836,12023,029.7,045.5,0.474,741.4,01.18,0.508
2015-04-15 00:05:00,1803E-3,5C000000,-0724,0835,12270,029.7,045.5,0.474,741.4,01.18,0.508
2015-04-15 00:06:00,1893E-3,5C000000,-0724,0836,12152,029.7,045.5,0.474,741.4,01.18,0.508
2015-04-15 00:07:00,1623E-3,5C000000,-0724,0835,11966,029.6,045.5,0.474,741.4,01.18,0.508
2015-04-15 00:08:00,1745E-3,5C000000,-0724,0835,12144,029.5,045.5,0.474,741.4,01.18,0.508
2015-04-15 00:09:00,1693E-3,5C000000,-0724,0836,12157,029.4,045.5,0.474,741.4,01.18,0.508
2015-04-15 00:10:00,1654E-3,5C000000,-0724,0835,12158,029.3,045.5,0.474,741.4,01.18,0.508
2015-04-15 00:11:00,1774E-3,5C000000,-0724,0834,12163,029.2,045.5,0.474,741.4,01.18,0.508
2015-04-15 00:12:00,1658E-3,5C000000,-0724,0835,12061,029.1,045.5,0.474,741.4,01.18,0.508
2015-04-15 00:13:00,1744E-3,5C000000,-0724,0835,12171,028.9,045.5,0.474,741.5,01.18,0.508
2015-04-15 00:14:00,1755E-3,5C000000,-0724,0835,12109,028.7,045.5,0.475,741.4,01.18,0.508
2015-04-15 00:15:00,1897E-3,5C000000,-0724,0835,12235,028.4,045.5,0.475,741.5,01.18,0.508
2015-04-15 00:16:00,1962E-3,5C000000,-0724,0835,12103,028.3,045.5,0.475,741.5,01.18,0.508
2015-04-15 00:17:00,1855E-3,5C000000,-0724,0835,11975,028.0,045.5,0.476,741.5,01.18,0.508
2015-04-15 00:18:00,2043E-3,5C000000,-0724,0835,12126,027.9,045.4,0.476,741.5,01.18,0.508
2015-04-15 00:19:00,1963E-3,5C000000,-0724,0834,12110,027.7,045.4,0.476,741.5,01.18,0.508
2015-04-15 00:20:00,1974E-3,5C000000,-0724,0835,12242,027.6,045.5,0.477,741.5,01.18,0.508
2015-04-15 00:21:00,2000E-3,5C000000,-0724,0835,12044,027.5,045.4,0.477,741.5,01.18,0.508
2015-04-15 00:22:00,2074E-3,5C000000,-0724,0834,12077,027.5,045.4,0.476,741.5,01.18,0.508
2015-04-15 00:23:00,1999E-3,5C000000,-0724,0835,12216,027.6,045.4,0.477,741.5,01.18,0.508
2015-04-15 00:24:00,2040E-3,5C000000,-0724,0835,12205,027.6,045.5,0.477,741.4,01.18,0.508
2015-04-15 00:25:00,2033E-3,5C000000,-0724,0835,12216,027.7,045.5,0.476,741.4,01.18,0.508
2015-04-15 00:26:00,1973E-3,5C000000,-0724,0835,12213,027.9,045.5,0.477,741.4,01.18,0.508
2015-04-15 00:27:00,1956E-3,5C000000,-0724,0834,12175,028.0,045.5,0.476,741.4,01.18,0.508
2015-04-15 00:28:00,1974E-3,5C000000,-0724,0835,12256,028.1,045.5,0.477,741.4,01.18,0.508
2015-04-15 00:29:00,1947E-3,5C000000,-0724,0835,12098,028.2,045.5,0.476,741.4,01.18,0.508
2015-04-15 00:30:00,1824E-3,5C000000,-0724,0835,12396,028.4,045.5,0.476,741.4,01.18,0.508
2015-04-15 00:31:00,1985E-3,5C000000,-0724,0835,11988,028.5,045.5,0.476,741.4,01.18,0.508
2015-04-15 00:32:00,1882E-3,5C000000,-0724,0835,12151,028.7,045.5,0.476,741.4,01.18,0.508
2015-04-15 00:33:00,1898E-3,5C000000,-0724,0835,12172,028.8,045.5,0.476,741.4,01.18,0.508
2015-04-15 00:34:00,1901E-3,5C000000,-0724,0835,12037,028.9,045.5,0.475,741.4,01.18,0.508
2015-04-15 00:35:00,1879E-3,5C000000,-0724,0835,12102,029.1,045.5,0.475,741.4,01.18,0.508
2015-04-15 00:36:00,1966E-3,5C000000,-0724,0835,12053,029.2,045.5,0.475,741.4,01.18,0.508
2015-04-15 00:37:00,1893E-3,5C000000,-0724,0836,12280,029.3,045.5,0.474,741.4,01.18,0.508
2015-04-15 00:38:00,1898E-3,5C000000,-0724,0836,12170,029.4,045.5,0.474,741.4,01.18,0.508
2015-04-15 00:39:00,1837E-3,5C000000,-0724,0835,12209,029.4,045.5,0.475,741.4,01.18,0.508
2015-04-15 00:40:00,1928E-3,5C000000,-0724,0835,12180,029.5,045.5,0.475,741.5,01.18,0.508
2015-04-15 00:41:00,1868E-3,5C000000,-0724,0836,12094,029.5,045.5,0.474,741.5,01.18,0.508
2015-04-15 00:42:00,1936E-3,5C000000,-0724,0836,12288,029.5,045.5,0.474,741.5,01.18,0.508
2015-04-15 00:43:00,1884E-3,5C000000,-0724,0836,12213,029.4,045.5,0.474,741.5,01.18,0.508
2015-04-15 00:44:00,2021E-3,5C000000,-0724,0834,12203,029.4,045.5,0.474,741.5,01.18,0.508
2015-04-15 00:45:00,2064E-3,5C000000,-0724,0835,12188,029.3,045.5,0.475,741.5,01.18,0.508
2015-04-15 00:46:00,1953E-3,5C000000,-0724,0835,12045,029.2,045.5,0.474,741.6,01.18,0.508
2015-04-15 00:47:00,2072E-3,5C000000,-0724,0834,12176,029.1,045.5,0.475,741.6,01.18,0.508
2015-04-15 00:48:00,1971E-3,5C000000,-0724,0834,12036,029.0,045.5,0.474,741.6,01.18,0.508
2015-04-15 00:49:00,1956E-3,5C000000,-0724,0835,12108,028.9,045.5,0.474,741.6,01.18,0.508
2015-04-15 00:50:00,1957E-3,5C000000,-0724,0835,12259,028.7,045.4,0.475,741.6,01.18,0.508
2015-04-15 00:51:00,1951E-3,5C000000,-0724,0835,12118,028.5,045.5,0.475,741.6,01.18,0.508
2015-04-15 00:52:00,1887E-3,5C000000,-0724,0835,12085,028.3,045.4,0.475,741.6,01.18,0.508
2015-04-15 00:53:00,1915E-3,5C000000,-0724,0834,12069,028.1,045.4,0.475,741.7,01.18,0.508
2015-04-15 00:54:00,2015E-3,5C000000,-0724,0835,12046,027.9,045.4,0.475,741.7,01.18,0.508
2015-04-15 00:55:00,1975E-3,5C000000,-0724,0835,12277,027.8,045.4,0.476,741.7,01.18,0.508
2015-04-15 00:56:00,1937E-3,5C000000,-0724,0834,12296,027.7,045.4,0.476,741.7,01.18,0.508
2015-04-15 00:57:00,2030E-3,5C000000,-0724,0834,12182,027.6,045.4,0.476,741.7,01.18,0.508
2015-04-15 00:58:00,1933E-3,5C000000,-0724,0834,12208,027.4,045.4,0.477,741.6,01.18,0.508
2015-04-15 00:59:00,2060E-3,5C000000,-0724,0834,12101,027.3,045.4,0.477,741.7,01.18,0.508
2015-04-15 01:00:00,2043E-3,5C000000,-0724,0834,12257,027.3,045.4,0.477,741.6,01.18,0.508
2015-04-15 01:01:00,1890E-3,5C000000,-0724,0834,12079,027.4,045.5,0.477,741.6,01.18,0.508
2015-04-15 01:02:00,2024E-3,5C000000,-0724,0834,12203,027.5,045.4,0.477,741.6,01.18,0.508
2015-04-15 01:03:00,1809E-3,5C000000,-0724,0834,12163,027.6,045.4,0.477,741.6,01.18,0.508
2015-04-15 01:04:00,1995E-3,5C000000,-0724,0835,12173,027.7,045.4,0.477,741.6,01.18,0.508
2015-04-15 01:05:00,1952E-3,5C000000,-0724,0834,11808,027.8,045.5,0.477,741.6,01.18,0.508
2015-04-15 01:06:00,1909E-3,5C000000,-0724,0835,12283,028.0,045.5,0.476,741.6,01.18,0.508
2015-04-15 01:07:00,1843E-3,5C000000,-0724,0834,12076,028.1,045.5,0.477,741.6,01.18,0.508
2015-04-15 01:08:00,1779E-3,5C000000,-0724,0835,11988,028.3,045.5,0.476,741.6,01.18,0.508
2015-04-15 01:09:00,1780E-3,5C000000,-0724,0835,11978,028.4,045.5,0.476,741.6,01.18,0.508
2015-04-15 01:10:00,1733E-3,5C000000,-0724,0835,12112,028.6,045.5,0.476,741.6,01.18,0.508
2015-04-15 01:11:00,1936E-3,5C000000,-0724,0836,12112,028.7,045.5,0.475,741.6,01.18,0.508
2015-04-15 01:12:00,1906E-3,5C000000,-0724,0835,12013,028.8,045.5,0.475,741.6,01.18,0.508
2015-04-15 01:13:00,1916E-3,5C000000,-0724,0836,12205,028.9,045.5,0.475,741.5,01.18,0.508
2015-04-15 01:14:00,1914E-3,5C000000,-0724,0835,12271,029.0,045.5,0.475,741.5,01.18,0.508
2015-04-15 01:15:00,1717E-3,5C000000,-0724,0835,11932,028.9,045.5,0.475,741.6,01.18,0.508
2015-04-15 01:16:00,1961E-3,5C000000,-0724,0835,12101,028.9,045.5,0.475,741.6,01.18,0.508
2015-04-15 01:17:00,1831E-3,5C000000,-0724,0836,12104,028.9,045.5,0.475,741.6,01.18,0.508
2015-04-15 01:18:00,1786E-3,5C000000,-0724,0835,12038,028.9,045.5,0.475,741.6,01.18,0.508
2015-04-15 01:19:00,1977E-3,5C000000,-0724,0835,12101,028.8,045.5,0.475,741.6,01.18,0.508
2015-04-15 01:20:00,1819E-3,5C000000,-0724,0835,12208,028.8,045.5,0.475,741.6,01.18,0.508
2015-04-15 01:21:00,1847E-3,5C000000,-0724,0835,12009,028.7,045.5,0.475,741.6,01.18,0.508
2015-04-15 01:22:00,1773E-3,5C000000,-0724,0836,12222,028.7,045.5,0.475,741.6,01.18,0.508
2015-04-15 01:23:00,2017E-3,5C000000,-0724,0835,12110,028.6,045.5,0.475,741.6,01.18,0.508
2015-04-15 01:24:00,1817E-3,5C000000,-0724,0835,12107,028.5,045.5,0.475,741.7,01.18,0.508
2015-04-15 01:25:00,1775E-3,5C000000,-0724,0835,12102,028.4,045.5,0.475,741.7,01.18,0.508
2015-04-15 01:26:00,1822E-3,5C000000,-0724,0834,12218,028.3,045.5,0.475,741.6,01.18,0.508
2015-04-15 01:27:00,1835E-3,5C000000,-0724,0834,12092,028.1,045.5,0.476,741.7,01.18,0.508
2015-04-15 01:28:00,1882E-3,5C000000,-0724,0834,12123,028.0,045.4,0.476,741.7,01.18,0.508
2015-04-15 01:29:00,1770E-3,5C000000,-0724,0834,12275,027.8,045.4,0.476,741.7,01.18,0.508
2015-04-15 01:30:00,1883E-3,5C000000,-0724,0835,12193,027.7,045.4,0.476,741.7,01.18,0.508
2015-04-15 01:31:00,1795E-3,5C000000,-0724,0834,12292,027.5,045.5,0.476,741.7,01.18,0.508
2015-04-15 01:32:00,1666E-3,5C000000,-0724,0834,12186,027.4,045.4,0.477,741.7,01.18,0.508
2015-04-15 01:33:00,1745E-3,5C000000,-0724,0835,12131,027.3,045.4,0.477,741.7,01.18,0.508
2015-04-15 01:34:00,1846E-3,5C000000,-0724,0834,12140,027.3,045.5,0.476,741.7,01.18,0.508
2015-04-15 01:35:00,1758E-3,5C000000,-0724,0834,12215,027.2,045.4,0.477,741.6,01.18,0.508
2015-04-15 01:36:00,1863E-3,5C000000,-0724,0835,12024,027.4,045.4,0.477,741.6,01.18,0.508
2015-04-15 01:37:00,1794E-3,5C000000,-0724,0835,12158,027.5,045.4,0.477,741.6,01.18,0.508
2015-04-15 01:38:00,1830E-3,5C000000,-0724,0835,12119,027.6,045.5,0.477,741.6,01.18,0.508
2015-04-15 01:39:00,1670E-3,5C000000,-0724,0835,12171,027.7,045.4,0.477,741.6,01.18,0.508
2015-04-15 01:40:00,1822E-3,5C000000,-0724,0834,12191,027.9,045.4,0.476,741.6,01.18,0.508
2015-04-15 01:41:00,1794E-3,5C000000,-0724,0835,12139,028.0,045.5,0.477,741.6,01.18,0.508
2015-04-15 01:42:00,1796E-3,5C000000,-0724,0835,12140,028.2,045.5,0.477,741.6,01.18,0.508
2015-04-15 01:43:00,1884E-3,5C000000,-0724,0835,12209,028.3,045.5,0.476,741.6,01.18,0.508
2015-04-15 01:44:00,1666E-3,5C000000,-0724,0835,12241,028.4,045.5,0.476,741.6,01.18,0.508
2015-04-15 01:45:00,1850E-3,5C000000,-0724,0835,12077,028.6,045.5,0.476,741.6,01.18,0.508
2015-04-15 01:46:00,1904E-3,5C000000,-0724,0835,12302,028.6,045.5,0.476,741.6,01.18,0.508
2015-04-15 01:47:00,1759E-3,5C000000,-0724,0836,12038,028.7,045.5,0.476,741.7,01.18,0.508
2015-04-15 01:48:00,1772E-3,5C000000,-0724,0835,12119,028.7,045.5,0.475,741.7,01.18,0.508
2015-04-15 01:49:00,1943E-3,5C000000,-0724,0835,12038,028.7,045.5,0.475,741.7,01.18,0.508
2015-04-15 01:50:00,1833E-3,5C000000,-0724,0834,12092,028.7,045.5,0.476,741.7,01.18,0.508
2015-04-15 01:51:00,1763E-3,5C000000,-0724,0835,12086,028.6,045.5,0.475,741.7,01.18,0.508
2015-04-15 01:52:00,1912E-3,5C000000,-0724,0835,12236,028.6,045.5,0.475,741.7,01.18,0.508
2015-04-15 01:53:00,1852E-3,5C000000,-0724,0835,12109,028.6,045.5,0.475,741.7,01.18,0.508
2015-04-15 01:54:00,1752E-3,5C000000,-0724,0836,12102,028.5,045.5,0.475,741.7,01.18,0.508
2015-04-15 01:55:00,1707E-3,5C000000,-0724,0834,12186,028.4,045.5,0.476,741.7,01.18,0.508
2015-04-15 01:56:00,1750E-3,5C000000,-0724,0834,12186,028.3,045.5,0.476,741.7,01.18,0.508
2015-04-15 01:57:00,1824E-3,5C000000,-0724,0835,12084,028.1,045.4,0.475,741.7,01.18,0.508
2015-04-15 01:58:00,1815E-3,5C000000,-0724,0835,12040,027.9,045.4,0.476,741.7,01.18,0.508
2015-04-15 01:59:00,1852E-3,5C000000,-0724,0835,12115,027.8,045.5,0.476,741.7,01.18,0.508
2015-04-15 02:00:00,1879E-3,5C000000,-0724,0836,12173,027.7,045.5,0.476,741.7,01.18,0.508
2015-04-15 02:01:00,1646E-3,5C000000,-0724,0834,12205,027.5,045.4,0.476,741.8,01.18,0.508
2015-04-15 02:02:00,1721E-3,5C000000,-0724,0834,12189,027.4,045.4,0.476,741.7,01.18,0.508
2015-04-15 02:03:00,1828E-3,5C000000,-0724,0835,12100,027.3,045.4,0.477,741.7,01.18,0.508
2015-04-15 02:04:00,1798E-3,5C000000,-0724,0834,12166,027.3,045.4,0.477,741.7,01.18,0.508
2015-04-15 02:05:00,1714E-3,5C000000,-0724,0834,12142,027.2,045.4,0.477,741.7,01.18,0.508
2015-04-15 02:06:00,1725E-3,5C000000,-0724,0833,12201,027.1,045.4,0.477,741.7,01.18,0.508
2015-04-15 02:07:00,1817E-3,5C000000,-0724,0834,12111,027.1,045.4,0.477,741.7,01.18,0.508
2015-04-15 02:08:00,1885E-3,5C000000,-0724,0834,12133,027.3,045.4,0.477,741.7,01.18,0.508
2015-04-15 02:09:00,1757E-3,5C000000,-0724,0834,12102,027.4,045.4,0.477,741.7,01.18,0.508
2015-04-15 02:10:00,1761E-3,5C000000,-0724,0835,12048,027.5,045.5,0.477,741.7,01.18,0.508
2015-04-15 02:11:00,1886E-3,5C000000,-0724,0835,12121,027.6,045.4,0.477,741.7,01.18,0.508
2015-04-15 02:12:00,1866E-3,5C000000,-0724,0835,12174,027.8,045.4,0.477,741.7,01.18,0.508
2015-04-15 02:13:00,1824E-3,5C000000,-0724,0834,12288,027.9,045.5,0.477,741.7,01.18,0.508
2015-04-15 02:14:00,1770E-3,5C000000,-0724,0835,12026,028.0,045.5,0.476,741.7,01.18,0.508
2015-04-15 02:15:00,1779E-3,5C000000,-0724,0835,12189,028.2,045.5,0.476,741.6,01.18,0.508
2015-04-15 02:16:00,1922E-3,5C000000,-0724,0834,12245,028.3,045.5,0.476,741.7,01.18,0.508
2015-04-15 02:17:00,1876E-3,5C000000,-0724,0834,12080,028.3,045.4,0.476,741.6,01.18,0.508
2015-04-15 02:18:00,1737E-3,5C000000,-0724,0834,12224,028.4,045.4,0.476,741.6,01.18,0.508
2015-04-15 02:19:00,1805E-3,5C000000,-0724,0835,12238,028.4,045.4,0.475,741.6,01.18,0.508
2015-04-15 02:20:00,1763E-3,5C000000,-0724,0835,12165,028.4,045.5,0.476,741.7,01.18,0.508
2015-04-15 02:21:00,1857E-3,5C000000,-0724,0835,12092,028.4,045.5,0.476,741.7,01.18,0.508
2015-04-15 02:22:00,1709E-3,5C000000,-0724,0835,12262,028.4,045.5,0.475,741.7,01.18,0.508
2015-04-15 02:23:00,1837E-3,5C000000,-0724,0835,12171,028.4,045.5,0.476,741.7,01.18,0.508
2015-04-15 02:24:00,1730E-3,5C000000,-0724,0835,12245,028.4,045.4,0.476,741.7,01.18,0.508
2015-04-15 02:25:00,1827E-3,5C000000,-0724,0835,12204,028.3,045.5,0.475,741.7,01.18,0.508
2015-04-15 02:26:00,1792E-3,5C000000,-0724,0835,12279,028.2,045.5,0.476,741.7,01.18,0.508
2015-04-15 02:27:00,1799E-3,5C000000,-0724,0835,12129,028.1,045.4,0.475,741.8,01.18,0.508
2015-04-15 02:28:00,1927E-3,5C000000,-0724,0834,12162,027.9,045.4,0.476,741.8,01.18,0.508
2015-04-15 02:29:00,1812E-3,5C000000,-0724,0835,12181,027.8,045.4,0.476,741.8,01.18,0.508
2015-04-15 02:30:00,1816E-3,5C000000,-0724,0834,12157,027.6,045.4,0.476,741.8,01.18,0.508
2015-04-15 02:31:00,1752E-3,5C000000,-0724,0835,12098,027.5,045.4,0.476,741.9,01.18,0.508
2015-04-15 02:32:00,1933E-3,5C000000,-0724,0835,12146,027.4,045.4,0.477,741.9,01.18,0.508
2015-04-15 02:33:00,1869E-3,5C000000,-0724,0834,11976,027.3,045.4,0.477,741.9,01.18,0.508
2015-04-15 02:34:00,1794E-3,5C000000,-0724,0834,11860,027.2,045.4,0.477,741.8,01.18,0.508
2015-04-15 02:35:00,1824E-3,5C000000,-0724,0833,12219,027.2,045.4,0.477,741.8,01.18,0.508
2015-04-15 02:36:00,1857E-3,5C000000,-0724,0834,12047,027.1,045.4,0.477,741.9,01.18,0.508
2015-04-15 02:37:00,1670E-3,5C000000,-0724,0834,12319,027.0,045.4,0.477,741.9,01.18,0.508
2015-04-15 02:38:00,1734E-3,5C000000,-0724,0834,12087,027.0,045.5,0.478,741.9,01.18,0.508
2015-04-15 02:39:00,1870E-3,5C000000,-0724,0834,12038,027.0,045.4,0.477,741.9,01.18,0.508
2015-04-15 02:40:00,1721E-3,5C000000,-0724,0834,12167,027.1,045.4,0.478,741.9,01.18,0.508
2015-04-15 02:41:00,1758E-3,5C000000,-0724,0835,12223,027.2,045.5,0.477,741.9,01.18,0.508
2015-04-15 02:42:00,1721E-3,5C000000,-0724,0835,12185,027.3,045.4,0.477,741.8,01.18,0.508
2015-04-15 02:43:00,1888E-3,5C000000,-0724,0835,12160,027.4,045.5,0.477,741.8,01.18,0.508
2015-04-15 02:44:00,1883E-3,5C000000,-0724,0834,12196,027.6,045.4,0.477,741.8,01.18,0.508
2015-04-15 02:45:00,1869E-3,5C000000,-0724,0834,12158,027.8,045.4,0.477,741.8,01.18,0.508
2015-04-15 02:46:00,1693E-3,5C000000,-0724,0834,12244,027.9,045.5,0.477,741.8,01.18,0.508
2015-04-15 02:47:00,1741E-3,5C000000,-0724,0834,12260,028.1,045.5,0.477,741.8,01.18,0.508
2015-04-15 02:48:00,1885E-3,5C000000,-0724,0835,12190,028.3,045.5,0.476,741.8,01.18,0.508
2015-04-15 02:49:00,1854E-3,5C000000,-0724,0835,12111,028.5,045.5,0.476,741.8,01.18,0.508
2015-04-15 02:50:00,1795E-3,5C000000,-0724,0835,12169,028.5,045.5,0.476,741.8,01.18,0.508
2015-04-15 02:51:00,1817E-3,5C000000,-0724,0834,12133,028.6,045.5,0.475,741.9,01.18,0.508
2015-04-15 02:52:00,1679E-3,5C000000,-0724,0834,12143,028.8,045.5,0.475,741.9,01.18,0.508
2015-04-15 02:53:00,1794E-3,5C000000,-0724,0835,12240,028.8,045.5,0.476,741.9,01.18,0.508
2015-04-15 02:54:00,1702E-3,5C000000,-0724,0835,12106,028.8,045.5,0.475,741.9,01.18,0.508
2015-04-15 02:55:00,1823E-3,5C000000,-0724,0835,12184,028.8,045.5,0.475,741.9,01.18,0.508
2015-04-15 02:56:00,1870E-3,5C000000,-0724,0835,12382,028.8,045.5,0.475,741.9,01.18,0.508
2015-04-15 02:57:00,1850E-3,5C000000,-0724,0835,12203,028.8,045.5,0.475,741.9,01.18,0.508
2015-04-15 02:58:00,1776E-3,5C000000,-0724,0835,12032,028.7,045.5,0.475,741.9,01.18,0.508
2015-04-15 02:59:00,1699E-3,5C000000,-0724,0835,12259,028.7,045.5,0.475,741.9,01.18,0.508
2015-04-15 03:00:00,1786E-3,5C000000,-0724,0834,12161,028.6,045.5,0.475,741.9,01.18,0.508
2015-04-15 03:01:00,1862E-3,5C000000,-0724,0835,12232,028.5,045.5,0.475,742.0,01.18,0.508
2015-04-15 03:02:00,1864E-3,5C000000,-0724,0835,12084,028.4,045.5,0.475,742.0,01.18,0.508
2015-04-15 03:03:00,1850E-3,5C000000,-0724,0834,12090,028.3,045.4,0.475,742.0,01.18,0.508
2015-04-15 03:04:00,1905E-3,5C000000,-0724,0834,12173,028.1,045.4,0.476,742.0,01.18,0.508
2015-04-15 03:05:00,1813E-3,5C000000,-0724,0835,12200,027.9,045.5,0.476,742.1,01.18,0.508
2015-04-15 03:06:00,1726E-3,5C000000,-0724,0835,12231,027.8,045.4,0.476,742.1,01.18,0.508
2015-04-15 03:07:00,1867E-3,5C000000,-0724,0835,12220,027.7,045.4,0.477,742.1,01.18,0.508
2015-04-15 03:08:00,1875E-3,5C000000,-0724,0835,12099,027.6,045.4,0.477,742.1,01.18,0.508
2015-04-15 03:09:00,1756E-3,5C000000,-0724,0834,12204,027.5,045.4,0.477,742.1,01.18,0.508
2015-04-15 03:10:00,1815E-3,5C000000,-0724,0834,12193,027.4,045.4,0.477,742.1,01.18,0.508
2015-04-15 03:11:00,1768E-3,5C000000,-0724,0834,12081,027.3,045.4,0.477,742.1,01.18,0.508
2015-04-15 03:12:00,1714E-3,5C000000,-0724,0834,12127,027.2,045.4,0.477,742.1,01.18,0.508
2015-04-15 03:13:00,1827E-3,5C000000,-0724,0835,12002,027.1,045.4,0.477,742.1,01.18,0.508
2015-04-15 03:14:00,1696E-3,5C000000,-0724,0835,12315,027.1,045.4,0.477,742.0,01.18,0.508
2015-04-15 03:15:00,1706E-3,5C000000,-0724,0834,12152,027.1,045.4,0.477,742.1,01.18,0.508
2015-04-15 03:16:00,1821E-3,5C000000,-0724,0835,12182,027.0,045.4,0.477,742.1,01.18,0.508
2015-04-15 03:17:00,1798E-3,5C000000,-0724,0834,12140,026.9,045.4,0.477,742.1,01.18,0.508
2015-04-15 03:18:00,1843E-3,5C000000,-0724,0834,12216,026.9,045.4,0.478,742.1,01.18,0.508
2015-04-15 03:19:00,1747E-3,5C000000,-0724,0834,12148,026.9,045.4,0.477,742.1,01.18,0.508
2015-04-15 03:20:00,1845E-3,5C000000,-0724,0834,12038,027.0,045.4,0.478,742.1,01.18,0.508
2015-04-15 03:21:00,1834E-3,5C000000,-0724,0835,12129,027.2,045.4,0.477,742.1,01.18,0.508
2015-04-15 03:22:00,1805E-3,5C000000,-0724,0835,12130,027.3,045.4,0.478,742.1,01.18,0.508
2015-04-15 03:23:00,1738E-3,5C000000,-0724,0835,12267,027.4,045.5,0.477,742.1,01.18,0.508
2015-04-15 03:24:00,1851E-3,5C000000,-0724,0834,12155,027.6,045.4,0.477,742.1,01.18,0.508
2015-04-15 03:25:00,1800E-3,5C000000,-0724,0834,12045,027.7,045.4,0.477,742.0,01.18,0.508
2015-04-15 03:26:00,1739E-3,5C000000,-0724,0835,12115,027.9,045.4,0.477,742.1,01.18,0.508
2015-04-15 03:27:00,1805E-3,5C000000,-0724,0836,12058,028.1,045.5,0.476,742.1,01.18,0.508
2015-04-15 03:28:00,1788E-3,5C000000,-0724,0835,12236,028.2,045.5,0.476,742.0,01.18,0.508
2015-04-15 03:29:00,1883E-3,5C000000,-0724,0835,12273,028.4,045.5,0.476,742.0,01.18,0.508
2015-04-15 03:30:00,1876E-3,5C000000,-0724,0836,12057,028.5,045.5,0.476,742.0,01.18,0.508
2015-04-15 03:31:00,1958E-3,5C000000,-0724,0835,12017,028.6,045.5,0.476,742.0,01.18,0.508
2015-04-15 03:32:00,1851E-3,5C000000,-0724,0836,11874,028.7,045.5,0.476,742.0,01.18,0.508
2015-04-15 03:33:00,1753E-3,5C000000,-0724,0835,12141,028.8,045.5,0.476,742.0,01.18,0.508
2015-04-15 03:34:00,1834E-3,5C000000,-0724,0835,12093,028.8,045.5,0.475,742.0,01.18,0.508
2015-04-15 03:35:00,1789E-3,5C000000,-0724,0835,12251,028.8,045.5,0.475,742.0,01.18,0.508
2015-04-15 03:36:00,1753E-3,5C000000,-0724,0836,12193,028.8,045.5,0.476,742.0,01.18,0.508
2015-04-15 03:37:00,1798E-3,5C000000,-0724,0835,12117,028.8,045.5,0.475,742.0,01.18,0.508
2015-04-15 03:38:00,1753E-3,5C000000,-0724,0835,11977,028.7,045.5,0.475,742.0,01.18,0.508
2015-04-15 03:39:00,1719E-3,5C000000,-0724,0836,12133,028.7,045.5,0.475,742.0,01.18,0.508
2015-04-15 03:40:00,1924E-3,5C000000,-0724,0835,12073,028.7,045.4,0.475,742.0,01.18,0.508
2015-04-15 03:41:00,1803E-3,5C000000,-0724,0836,12120,028.6,045.5,0.475,742.0,01.18,0.508
2015-04-15 03:42:00,1783E-3,5C000000,-0724,0835,12136,028.5,045.5,0.475,742.0,01.18,0.508
2015-04-15 03:43:00,1803E-3,5C000000,-0724,0835,12081,028.3,045.5,0.475,742.0,01.18,0.508
2015-04-15 03:44:00,1771E-3,5C000000,-0724,0834,12220,028.1,045.5,0.476,742.0,01.18,0.508
2015-04-15 03:45:00,1796E-3,5C000000,-0724,0834,12041,028.0,045.5,0.476,742.0,01.18,0.508
2015-04-15 03:46:00,1978E-3,5C000000,-0724,0834,12158,027.8,045.5,0.476,742.0,01.18,0.508
2015-04-15 03:47:00,1825E-3,5C000000,-0724,0835,12225,027.7,045.5,0.476,742.1,01.18,0.508
2015-04-15 03:48:00,1774E-3,5C000000,-0724,0835,12269,027.6,045.4,0.477,742.1,01.18,0.508
2015-04-15 03:49:00,1825E-3,5C000000,-0724,0834,12215,027.5,045.4,0.477,742.1,01.18,0.508
2015-04-15 03:50:00,1901E-3,5C000000,-0724,0835,12127,027.4,045.4,0.477,742.1,01.18,0.508
2015-04-15 03:51:00,1708E-3,5C000000,-0724,0835,12098,027.3,045.5,0.477,742.1,01.18,0.508
2015-04-15 03:52:00,1745E-3,5C000000,-0724,0835,12192,027.2,045.4,0.477,742.1,01.18,0.508
2015-04-15 03:53:00,1679E-3,5C000000,-0724,0835,12257,027.2,045.4,0.477,742.1,01.18,0.508
2015-04-15 03:54:00,1759E-3,5C000000,-0724,0835,12269,027.1,045.4,0.477,742.1,01.18,0.508
2015-04-15 03:55:00,1883E-3,5C000000,-0724,0834,12220,027.0,045.5,0.478,742.1,01.18,0.508
2015-04-15 03:56:00,1806E-3,5C000000,-0724,0834,12232,027.0,045.4,0.477,742.1,01.18,0.508
2015-04-15 03:57:00,1806E-3,5C000000,-0724,0834,12192,027.0,045.4,0.478,742.1,01.18,0.508
2015-04-15 03:58:00,1842E-3,5C000000,-0724,0835,12143,027.0,045.4,0.477,742.1,01.18,0.508
2015-04-15 03:59:00,1786E-3,5C000000,-0724,0835,12192,027.2,045.5,0.477,742.0,01.18,0.508
2015-04-15 04:00:00,1682E-3,5C000000,-0724,0835,12187,027.3,045.5,0.478,742.0,01.18,0.508
2015-04-15 04:01:00,1674E-3,5C000000,-0724,0836,12054,027.4,045.4,0.477,742.0,01.18,0.508
2015-04-15 04:02:00,1852E-3,5C000000,-0724,0835,12016,027.6,045.4,0.477,742.0,01.18,0.508
2015-04-15 04:03:00,1812E-3,5C000000,-0724,0835,12054,027.7,045.4,0.477,742.0,01.18,0.508
2015-04-15 04:04:00,1725E-3,5C000000,-0724,0835,12130,027.9,045.5,0.477,742.0,01.18,0.508
2015-04-15 04:05:00,1839E-3,5C000000,-0724,0835,12238,028.1,045.5,0.476,742.0,01.18,0.508
2015-04-15 04:06:00,1746E-3,5C000000,-0724,0835,12128,028.2,045.5,0.476,742.0,01.18,0.508
2015-04-15 04:07:00,1710E-3,5C000000,-0724,0836,12079,028.4,045.5,0.476,742.0,01.18,0.508
2015-04-15 04:08:00,1736E-3,5C000000,-0724,0835,12020,028.5,045.5,0.476,742.0,01.18,0.508
2015-04-15 04:09:00,1764E-3,5C000000,-0724,0835,12103,028.6,045.5,0.476,742.1,01.18,0.508
2015-04-15 04:10:00,1868E-3,5C000000,-0724,0835,12208,028.6,045.5,0.476,742.1,01.18,0.508
2015-04-15 04:11:00,1746E-3,5C000000,-0724,0835,12086,028.7,045.5,0.475,742.0,01.18,0.508
2015-04-15 04:12:00,1756E-3,5C000000,-0724,0836,12108,028.7,045.5,0.475,742.1,01.18,0.508
2015-04-15 04:13:00,1885E-3,5C000000,-0724,0835,12265,028.7,045.5,0.476,742.1,01.18,0.508
2015-04-15 04:14:00,1818E-3,5C000000,-0724,0834,12051,028.6,045.5,0.475,742.1,01.18,0.508
2015-04-15 04:15:00,1878E-3,5C000000,-0724,0835,12190,028.6,045.5,0.475,742.1,01.18,0.508
2015-04-15 04:16:00,1807E-3,5C000000,-0724,0835,12135,028.6,045.5,0.475,742.1,01.18,0.508
2015-04-15 04:17:00,1681E-3,5C000000,-0724,0835,12138,028.5,045.5,0.475,742.1,01.18,0.508
2015-04-15 04:18:00,1920E-3,5C000000,-0724,0835,12186,028.4,045.4,0.475,742.1,01.18,0.508
2015-04-15 04:19:00,1810E-3,5C000000,-0724,0834,12167,028.3,045.4,0.475,742.1,01.18,0.508
2015-04-15 04:20:00,1830E-3,5C000000,-0724,0834,12172,028.1,045.4,0.475,742.1,01.18,0.508